Stations météo

réclame
Mon MeteoGroup
Tulloch Bridge, Grande-Bretagne (3047): Température de l'air & dewpoint: 22.10.2020 02:00:00 - 28.10.2020 02:00:00 (GMT)Tulloch Bridge, Grande-Bretagne (3047): Température de l'air -20cm & Température de l'air -100cm: 22.10.2020 02:00:00 - 28.10.2020 02:00:00 (GMT)Tulloch Bridge, Grande-Bretagne (3047): Vitesse du vent & gusts: 22.10.2020 02:00:00 - 28.10.2020 02:00:00 (GMT)Tulloch Bridge, Grande-Bretagne (3047): Direction du vent: 22.10.2020 02:00:00 - 28.10.2020 02:00:00 (GMT)Tulloch Bridge, Grande-Bretagne (3047): reduced air pressure: 22.10.2020 02:00:00 - 28.10.2020 02:00:00 (GMT)Tulloch Bridge, Grande-Bretagne (3047): visibility: 22.10.2020 02:00:00 - 28.10.2020 02:00:00 (GMT)Tulloch Bridge, Grande-Bretagne (3047): Quantités de précipitations: 22.10.2020 02:00:00 - 28.10.2020 02:00:00 (GMT)
Date & Time tt [°C] td [°C] tt -20cm [°C] tt -100cm [°C] ff [km/h] ff [knt] fx [km/h] fx [knt] dd ppp [hPa] vv [km] rr [mm]
28.10.2020 02:00:00 - - - - - - - - - - - -
28.10.2020 01:00:00 5,8 4,5 - - 9 5 - - SSW 985,5 14 0,0
28.10.2020 00:00:00 4,6 3,3 - - 2 1 - - W 985,7 45 0,0
27.10.2020 23:00:00 5,2 3,8 - - 13 7 - - S 985,5 20 0,0
27.10.2020 22:00:00 3,2 2,9 - - 2 1 - - SSE 985,7 14 0,0
27.10.2020 21:00:00 3,7 3,2 - - 4 2 - - NNE 985,4 17 0,2
27.10.2020 20:00:00 4,9 4,2 - - 4 2 - - SW 985,4 50 0,0
27.10.2020 19:00:00 4,9 3,7 - - 5 3 - - N 985,6 24 1,0
27.10.2020 18:00:00 5,9 4,0 - - 4 2 - - W 985,3 12 1,8
27.10.2020 17:00:00 6,9 6,0 - - 4 2 - - W 984,3 5 0,6
27.10.2020 16:00:00 7,3 5,5 - - 11 6 - - SSE 983,9 9 1,2
27.10.2020 15:00:00 8,4 5,8 - - 8 4 - - SE 983,7 40 0,0
27.10.2020 14:00:00 8,4 6,0 - - 8 4 - - SE 984,3 30 0,2
27.10.2020 13:00:00 7,9 5,0 - - 11 6 - - E 985,5 26 0,0
27.10.2020 12:00:00 8,5 4,6 - - 15 8 - - SSE 986,2 30 0,0
27.10.2020 11:00:00 7,3 3,7 - - 11 6 - - SE 987,7 50 0,0
27.10.2020 10:00:00 6,6 4,2 - - 5 3 - - NW 988,6 50 0,0
27.10.2020 09:00:00 5,2 4,5 8,9 9,7 5 3 - - WNW 989,3 45 0,0
27.10.2020 08:00:00 2,8 2,8 - - 5 3 - - ENE 990,7 40 0,0
27.10.2020 07:00:00 1,9 1,6 - - 2 1 - - E 991,0 15 0,0
27.10.2020 06:00:00 2,8 2,3 - - 5 3 - - NNE 991,2 19 0,0
27.10.2020 05:00:00 4,3 3,6 - - 4 2 - - E 991,6 20 0,0
27.10.2020 04:00:00 5,0 4,6 - - 4 2 - - WNW 991,9 45 0,0
27.10.2020 03:00:00 6,1 4,8 - - 5 3 - - WNW 991,9 50 0,0
27.10.2020 02:00:00 7,2 5,6 - - 5 3 - - WSW 992,4 50 0,0
27.10.2020 01:00:00 7,4 6,2 - - 5 3 - - WSW 992,6 6 0,0
27.10.2020 00:00:00 7,5 6,1 - - 8 4 - - W 992,7 18 0,0
26.10.2020 23:00:00 7,6 5,8 - - 4 2 - - W 992,6 50 0,0
26.10.2020 22:00:00 7,7 5,8 - - 8 4 - - SW 992,6 50 0,0
26.10.2020 21:00:00 7,8 6,2 - - 9 5 - - W 992,2 50 0,0
26.10.2020 20:00:00 7,9 6,3 - - 8 4 - - W 991,8 50 0,0
26.10.2020 19:00:00 8,0 6,6 - - 13 7 - - WNW 991,4 45 0,6
26.10.2020 18:00:00 8,3 6,2 - - 8 4 - - WSW 990,6 50 0,0
26.10.2020 17:00:00 8,1 6,9 - - 9 5 - - W 990,1 50 0,0
26.10.2020 16:00:00 8,4 6,8 - - 13 7 - - WNW 989,2 50 0,0
26.10.2020 15:00:00 8,8 6,4 - - 16 9 - - W 988,7 19 0,0
26.10.2020 14:00:00 9,2 6,3 - - 21 11 54 29 W 987,5 50 0,0
26.10.2020 13:00:00 9,4 6,6 - - 13 7 - - WSW 986,6 19 0,0
26.10.2020 12:00:00 8,9 6,9 - - 11 6 - - WNW 986,0 16 0,2
26.10.2020 11:00:00 9,4 7,9 - - 5 3 - - NW 985,3 28 0,0
26.10.2020 10:00:00 8,3 7,4 - - 4 2 - - WNW 984,8 11 0,2
26.10.2020 09:00:00 7,4 6,6 8,7 9,7 5 3 - - W 984,2 3,3 0,2
26.10.2020 08:00:00 7,3 6,3 - - 9 5 - - WSW 983,3 40 0,2
26.10.2020 07:00:00 7,3 6,1 - - 11 6 - - WSW 982,4 30 0,0
26.10.2020 06:00:00 7,3 6,7 - - 9 5 - - SSW 981,9 40 1,4
26.10.2020 05:00:00 7,3 6,2 - - 11 6 - - SSW 981,7 30 0,2
26.10.2020 04:00:00 6,7 5,9 - - 9 5 - - S 981,4 15 0,0
26.10.2020 03:00:00 6,8 5,8 - - 9 5 - - S 981,4 12 2,4
26.10.2020 02:00:00 7,1 5,6 - - 13 7 - - S 981,2 40 0,6
26.10.2020 01:00:00 7,0 5,9 - - 11 6 - - S 981,1 13 1,8
26.10.2020 00:00:00 7,2 6,1 - - 22 12 - - S 981,1 7 1,8
25.10.2020 23:00:00 7,5 6,0 - - 21 11 - - SSW 981,2 8 0,8
25.10.2020 22:00:00 7,3 6,1 - - 18 10 - - SSW 981,2 8 0,8
25.10.2020 21:00:00 7,5 5,8 - - 16 9 - - SSW 981,1 12 0,2
25.10.2020 20:00:00 7,3 5,6 - - 13 7 - - S 980,9 35 0,2
25.10.2020 19:00:00 7,3 5,5 - - 11 6 - - S 980,8 15 0,2
25.10.2020 18:00:00 7,8 4,9 - - 28 15 54 29 S 980,7 22 0,2
25.10.2020 17:00:00 7,7 5,3 - - 22 12 - - SSW 981,0 12 1,0
25.10.2020 16:00:00 6,8 4,9 - - 29 16 54 29 S 981,1 28 2,0
25.10.2020 15:00:00 6,9 5,4 - - 16 9 - - S 980,7 11 1,2
25.10.2020 14:00:00 6,7 5,2 - - 18 10 - - SSW 980,6 10 3,0
25.10.2020 13:00:00 6,9 5,7 - - 22 12 - - S 980,5 7 1,6
25.10.2020 12:00:00 6,9 5,0 - - 18 10 - - S 980,6 30 0,2
25.10.2020 11:00:00 6,9 4,3 - - 21 11 - - S 980,8 35 0,4
25.10.2020 10:00:00 6,8 3,9 - - 22 12 - - S 980,7 16 0,0
25.10.2020 09:00:00 6,5 4,2 8,9 10,0 21 11 - - S 980,5 12 0,2
25.10.2020 08:00:00 6,7 3,6 - - 9 5 - - SSW 980,7 23 0,0
25.10.2020 07:00:00 6,2 4,1 - - 29 16 - - S 980,0 14 0,2
25.10.2020 06:00:00 6,4 3,6 - - 5 3 - - S 980,2 50 0,0
25.10.2020 05:00:00 5,8 4,2 - - 9 5 - - S 980,9 50 0,6
25.10.2020 04:00:00 6,4 4,1 - - 5 3 - - E 980,6 16 0,4
25.10.2020 03:00:00 7,2 3,6 - - 22 12 - - S 981,1 40 0,0
25.10.2020 02:00:00 7,0 3,4 - - 18 10 - - S 981,6 45 0,0
25.10.2020 01:00:00 6,9 2,9 - - 15 8 - - SSW 982,0 25 0,0
25.10.2020 00:00:00 - - - - - - - - - - - -
24.10.2020 23:00:00 6,3 2,8 - - 22 12 - - SSW 982,9 30 0,2
24.10.2020 22:00:00 5,7 3,6 - - 8 4 - - SE 983,1 40 0,0
24.10.2020 21:00:00 3,5 3,2 - - 4 2 - - SSE 983,9 40 0,0
24.10.2020 20:00:00 4,2 3,1 - - 5 3 - - E 984,3 21 0,0
24.10.2020 19:00:00 5,2 3,8 - - 13 7 - - S 984,5 29 0,6
24.10.2020 18:00:00 6,0 3,6 - - 21 11 - - S 984,2 50 0,0
24.10.2020 17:00:00 7,3 3,5 - - 18 10 - - S 984,2 25 0,2
24.10.2020 16:00:00 5,8 4,2 - - 9 5 - - S 985,5 35 0,6
24.10.2020 15:00:00 7,6 3,1 - - 15 8 - - SSW 985,8 35 0,0
24.10.2020 14:00:00 9,0 3,9 - - 22 12 52 28 S 985,6 20 0,0
24.10.2020 13:00:00 8,6 4,3 - - 28 15 55 30 S 985,5 40 0,2
24.10.2020 12:00:00 8,0 3,7 - - 22 12 - - SW 986,2 21 0,2
24.10.2020 11:00:00 8,1 5,0 - - 15 8 46 25 SSW 985,7 30 0,4
24.10.2020 10:00:00 7,1 5,3 - - 24 13 46 25 SSW 986,2 5 1,0
24.10.2020 09:00:00 7,1 5,1 9,2 10,0 18 10 - - S 985,6 9 0,2
24.10.2020 08:00:00 6,6 4,8 - - 15 8 46 25 SSW 985,3 30 1,6
24.10.2020 07:00:00 7,4 4,3 - - 26 14 59 32 SW 985,2 9 3,6
24.10.2020 06:00:00 9,3 7,9 - - 21 11 - - S 983,7 10 2,0
24.10.2020 05:00:00 8,6 7,0 - - 28 15 57 31 SSE 985,3 11 1,2
24.10.2020 04:00:00 7,4 6,0 - - 26 14 52 28 SSE 986,7 11 2,4
24.10.2020 03:00:00 6,3 4,9 - - 24 13 52 28 SSE 989,5 16 2,6
24.10.2020 02:00:00 6,0 4,6 - - 26 14 - - SSE 992,0 9 1,2
24.10.2020 01:00:00 6,5 3,8 - - 24 13 - - SSE 993,4 20 0,0
24.10.2020 00:00:00 6,5 3,1 - - 8 4 - - SW 995,6 45 0,0
23.10.2020 23:00:00 6,7 2,6 - - 15 8 - - SSE 997,1 45 0,0
23.10.2020 22:00:00 5,7 4,0 - - 4 2 - - E 998,2 40 0,2
23.10.2020 21:00:00 5,6 4,0 - - 13 7 - - SSW 998,7 40 0,2
23.10.2020 20:00:00 5,0 3,6 - - 8 4 - - SSW 999,6 50 0,2
23.10.2020 19:00:00 5,2 3,9 - - 13 7 - - S 1000,4 40 0,2
23.10.2020 18:00:00 5,1 3,9 - - 8 4 - - S 1000,6 30 0,6
23.10.2020 17:00:00 5,3 4,1 - - 5 3 - - SSE 1000,3 11 1,2
23.10.2020 16:00:00 6,1 3,4 - - 8 4 - - SW 999,8 50 0,0
23.10.2020 15:00:00 6,6 3,6 - - 18 10 - - SSW 999,9 26 0,4
23.10.2020 14:00:00 9,3 3,3 - - 15 8 - - SW 999,2 30 0,0
23.10.2020 13:00:00 7,4 3,6 - - 5 3 - - WNW 999,1 50 0,0
23.10.2020 12:00:00 7,4 5,1 - - 5 3 - - S 999,0 50 1,2
23.10.2020 11:00:00 6,6 4,9 - - 9 5 - - SW 998,7 35 0,4
23.10.2020 10:00:00 5,6 4,7 - - 2 1 - - ENE 998,6 50 0,2
23.10.2020 09:00:00 5,0 4,0 9,7 10,0 4 2 - - NW 998,7 45 0,4
23.10.2020 08:00:00 6,4 4,4 - - 8 4 - - WSW 998,2 13 0,8
23.10.2020 07:00:00 6,3 4,9 - - 9 5 - - WSW 997,7 19 1,0
23.10.2020 06:00:00 6,2 4,5 - - 13 7 - - S 997,9 28 0,4
23.10.2020 05:00:00 6,3 4,5 - - 11 6 - - SW 998,3 30 0,4
23.10.2020 04:00:00 6,5 4,3 - - 9 5 - - NE 999,1 21 0,2
23.10.2020 03:00:00 6,4 4,2 - - 8 4 - - S 999,7 30 0,4
23.10.2020 02:00:00 7,0 3,4 - - 13 7 - - S 1000,7 40 0,0
23.10.2020 01:00:00 6,6 3,0 - - 15 8 - - SSW 1001,5 50 0,0
23.10.2020 00:00:00 6,6 3,7 - - 9 5 - - SW 1002,2 45 0,0
22.10.2020 23:00:00 6,5 3,3 - - 13 7 - - SSW 1002,7 50 0,0
22.10.2020 22:00:00 5,0 3,6 - - 5 3 - - SE 1003,5 50 0,0
22.10.2020 21:00:00 5,2 3,5 - - 4 2 - - WSW 1003,8 50 0,0
22.10.2020 20:00:00 4,9 4,3 - - 4 2 - - ENE 1004,1 30 0,0
22.10.2020 19:00:00 6,1 5,0 - - 11 6 - - W 1004,1 50 0,0
22.10.2020 18:00:00 6,7 5,9 - - 15 8 - - WNW 1003,6 30 0,2
22.10.2020 17:00:00 7,8 6,2 - - 4 2 - - NW 1003,2 50 0,0
22.10.2020 16:00:00 8,4 6,1 - - 4 2 - - W 1002,9 29 0,0
22.10.2020 15:00:00 8,9 5,5 - - 4 2 - - NNW 1002,6 50 0,0
22.10.2020 14:00:00 8,9 5,7 - - 4 2 - - NW 1002,5 40 0,0
22.10.2020 13:00:00 8,5 5,8 - - 11 6 - - NW 1002,6 50 0,0
22.10.2020 12:00:00 8,7 5,2 - - 9 5 - - WNW 1002,5 45 0,0
22.10.2020 11:00:00 8,3 5,5 - - 5 3 - - W 1002,3 45 0,0
22.10.2020 10:00:00 7,4 5,4 - - 9 5 - - W 1002,2 50 0,0
22.10.2020 09:00:00 7,3 5,0 10,0 10,0 4 2 - - WNW 1001,6 50 0,0
22.10.2020 08:00:00 6,9 5,0 - - 15 8 - - NW 1001,0 50 0,0
22.10.2020 07:00:00 7,3 5,1 - - 13 7 - - NNW 1000,0 50 0,0
22.10.2020 06:00:00 7,1 5,2 - - 13 7 - - NW 999,5 50 0,4
22.10.2020 05:00:00 7,8 5,2 - - 11 6 - - NNW 998,6 30 0,0
22.10.2020 04:00:00 7,6 5,8 - - 16 9 - - NW 997,9 45 1,0
22.10.2020 03:00:00 8,1 6,0 - - 16 9 - - NW 997,4 16 0,0
22.10.2020 02:00:00 8,1 6,3 - - 15 8 - - WNW 997,3 22 2,8

tt = Température de l'air
td = dewpoint
tt -20cm = Température de l'air -20cm
tt -100cm = Température de l'air -100cm
ff = Vitesse du vent
fx = gusts
dd = Direction du vent
ppp = reduced air pressure
vv = visibility
rr = Quantités de précipitations

stations d'obs. à proximité